Regional Weather Roundup
Issued by NWS

Home | Current Version | Previous Version | Text Only | Print | Product List | Glossary Off
Versions: 1 2 3 4 5 6 7 8 9 10 11 12 13 14 15 16 17 18 19 20 21 22 23 24 25 26 27 28 29 30 31 32 33 34 35 36 37 38 39 40 41 42 43 44 45 46 47 48 49 50

000
ASUS43 KMPX 231910
RWRMN
WEATHER ROUNDUP FOR MINNESOTA
NATIONAL WEATHER SERVICE TWIN CITIES/CHANHASSEN MN
200 PM CDT WED APR 23 2014


NOTE: "FAIR" INDICATES FEW OR NO CLOUDS BELOW 12,000 FEET WITH NO
SIGNIFICANT WEATHER AND/OR OBSTRUCTIONS TO VISIBILITY. N/A MEANS
CURRENT SKY AND/OR WEATHER CONDITIONS ARE NOT AVAILABLE.

MNZ060>063-068>070-232000-
   Twin Cities Metro

CITY           SKY/WX    TMP DP  RH WIND       PRES   REMARKS
TWIN CITIES    LGT RAIN  42  37  82 SE16      30.06F
ST PAUL        LGT RAIN  44  35  70 SE14      30.08S
CRYSTAL        LGT RAIN  45  33  63 SE14      30.04F
EDEN PRAIRIE   LGT RAIN  41  37  86 SE16G25   30.04S FOG
LAKEVILLE      LGT RAIN  37  37 100 E12       30.05F
SOUTH ST PAUL  LGT RAIN  46  36  69 SE8       30.07S
LAKE ELMO      CLOUDY    46  30  53 S10       30.07F
$$
MNZ001>005-007-008-013>017-022>024-027-028-232000-
   Northwest Minnesota

CITY           SKY/WX    TMP DP  RH WIND       PRES   REMARKS
BEMIDJI        CLOUDY    50  25  37 SE20G26   29.95F
HALLOCK          N/A     54  30  40 S16       29.88S
ROSEAU         CLOUDY    57  23  26 SE18G25   29.93F
WARROAD        CLOUDY    57  30  35 E15       29.95F
THIEF RVR FALL CLOUDY    45  34  65 SE16      29.91F
CROOKSTON      RAIN      43  43 100 SE13      29.89F
FOSSTON        DRIZZLE   46  30  53 SE16      29.90F
DETROIT LAKES  MIX PCPN  39  37  93 SE22G31   29.90F
MOORHEAD       LGT RAIN  43  43 100 SE20G26   29.86S
PARK RAPIDS    LGT RAIN  45  35  68 SE17G26   29.94F
$$
MNZ006-009>011-018-025>026-232000-
   North Central Minnesota

CITY           SKY/WX    TMP DP  RH WIND       PRES   REMARKS
BAUDETTE       CLOUDY    56  23  27 SE14G21   29.97F
FLAG ISLAND    CLOUDY    50  23  34 E10       29.97F
INTL FALLS     CLOUDY    53  23  31 SE10      30.02F
WASKISH        CLOUDY    55  25  30 E16G24    29.97S
BIG FORK       CLOUDY    55  23  28 SE16      30.01F
LONGVILLE      CLOUDY    50  23  34 SE14      29.99F
GRAND RAPIDS   CLOUDY    50  21  32 SE15      30.02F
CRANE LAKE     CLOUDY    55  21  26 S8        30.06F
ORR            PTSUNNY   55  18  22 SE13      30.01F
COOK           PTSUNNY   54  23  30 SE8G17    30.04F
$$
MNZ012-019>021-037-232000-
   Northeast Minnesota

CITY           SKY/WX    TMP DP  RH WIND       PRES   REMARKS
DULUTH         PTSUNNY   49  27  42 E10       30.07F
ELY            CLOUDY    52  19  28 SE12G17   30.06F
HIBBING        PTSUNNY   54  20  26 S12       30.04F
EVELETH        PTSUNNY   54  23  30 S12G17    30.05F
DULUTH HARBOR  CLOUDY    37  32  81 CALM      30.11F
TWO HARBORS    PTSUNNY   48  28  46 E10       30.07F
SILVER BAY     PTSUNNY   46  30  53 E8        30.09F
GRAND MARAIS     N/A     39  27  62 E3        30.15F
G MARAIS ARPRT PTSUNNY   45  19  36 SE7       30.12S
$$
MNZ029>031-032-039>041-046>048-054>057-064-232000-
   West Central Minnesota

CITY           SKY/WX    TMP DP  RH WIND       PRES   REMARKS
FERGUS FALLS   LGT RAIN  39  37  93 SE25G37   29.83F
WHEATON        LGT RAIN  45  41  87 E31       29.82F
MORRIS         CLOUDY    43  37  81 SE26G32   29.85F
ALEXANDRIA     LGT RAIN  40  37  89 SE20G29   29.92F FOG
ELBOW LAKE     LGT RAIN  40  38  93 SE23G30   29.86F
WADENA         RAIN      39  36  87 SE17G23   29.95S
GLENWOOD       CLOUDY    39  37  93 SE21G28   29.93F
APPLETON       CLOUDY    43  37  81 SE25G33   29.85F
BENSON         CLOUDY    43  37  81 SE15G29   29.89F
ORTONVILLE     DRIZZLE   43  36  75 SE21G29   29.81F
MADISON        CLOUDY    46  39  76 SE28G36   29.82F
WILLMAR        CLOUDY    43  37  81 SE21G31   29.95S
$$
MNZ033>034-036-042>043-049>051-058-059-232000-
   Central Minnesota

CITY           SKY/WX    TMP DP  RH WIND       PRES   REMARKS
ST CLOUD       LGT RAIN  45  36  70 SE15G21   30.01F
SAUK CENTRE    LGT RAIN  39  37  92 SE18G26   29.97S
PAYNESVILLE    RAIN      40  37  92 E13G23    29.97F
AITKIN         CLOUDY    54  25  32 E8G16     30.00F
PINE RIVER     CLOUDY    50  28  43 SE16      30.02S
BRAINERD       CLOUDY    54  24  31 S12G23    30.00F
STAPLES        RAIN      39  36  87 SE7       29.98F
LONG PRAIRIE   CLOUDY    37  36  93 SE13      29.99R
LITTLE FALLS   MIX PCPN  41  32  70 SE9G21    30.00S
LITCHFIELD     CLOUDY    41  41 100 E16G25    29.98F
BUFFALO        RAIN      40  35  81 SE12G21   30.05R
MAPLE LAKE     RAIN      41  39  90 SE8G16    30.04R
$$
MNZ037-044-045-052-053-232000-
   East Central Minnesota

CITY           SKY/WX    TMP DP  RH WIND       PRES   REMARKS
PRINCETON      LGT RAIN  46  32  57 SE10      30.03S
MORA           CLOUDY    48  27  43 SE10G17   30.06F
CAMBRIDGE      CLOUDY    52  32  46 SE9       30.02F
RUSH CITY      CLOUDY    50  27  40 SE10      30.05F
MOOSE LAKE     CLOUDY    52  27  37 E7        30.03F
HINCKLEY       FAIR      50  28  43 SE9       30.06S
CLOQUET        CLOUDY    48  21  34 E12       30.06F
MCGREGOR       CLOUDY    50  25  37 SE14      30.04S
$$
MNZ071>073-080-081-089-090-097-098-232000-
   Southwest Minnesota

CITY           SKY/WX    TMP DP  RH WIND       PRES   REMARKS
MONTEVIDEO     LGT RAIN  41  39  93 SE26G32   29.88F
GRANITE FALLS  LGT RAIN  42  36  77 E20G31    29.88F
CANBY          CLOUDY    44  37  77 SE23G35   29.82F
MARSHALL       CLOUDY    45  34  65 SE25G35   29.82F
REDWOOD FALLS  LGT RAIN  44  36  73 E16G28    29.91F
OLIVIA         CLOUDY    43  36  75 SE20G28   29.92F
PIPESTONE      CLOUDY    50  36  57 SE24G35   29.77F
WINDOM         CLOUDY    46  36  66 E20G28    29.86F
WORTHINGTON    CLOUDY    48  30  49 SE28G37   29.85R
JACKSON        CLOUDY    46  36  66 SE23      29.86F
TRACY          CLOUDY    45  37  75 SE17G28   29.84F
SLAYTON        CLOUDY    47  34  60 SE22G30   29.83F
$$
MNZ065>067-074>077-082>085-091>093-232000-
   South Central Minnesota

CITY           SKY/WX    TMP DP  RH WIND       PRES   REMARKS
MANKATO        CLOUDY    43  36  75 SE24      29.98F
NEW ULM        CLOUDY    43  36  75 SE16G25   29.94F
ST JAMES       CLOUDY    45  36  70 E22G28    29.93F
FAIRMONT       CLOUDY    46  32  57 SE24G37   29.93F
GLENCOE        CLOUDY    41  37  83 E17G24    29.99F
FARIBAULT      CLOUDY    43  36  75 E10G17    30.04F
OWATONNA       DRIZZLE   43  36  75 E17G23    30.01F
WASECA         CLOUDY    41  34  75 E23G29    30.00F
ALBERT LEA     DRIZZLE   45  36  70 SE21      29.99F
$$
MNZ078>079-086>088-094>096-232000-
   Southeast Minnesota

CITY           SKY/WX    TMP DP  RH WIND       PRES   REMARKS
ROCHESTER      CLOUDY    44  30  57 SE18      30.06F
RED WING       LGT RAIN  46  34  61 S7        30.08S
STANTON        DRIZZLE   41  35  80 SE10G17   30.05F
DODGE CENTER   CLOUDY    46  36  66 SE14      30.05F
WINONA         CLOUDY    48  30  49 SE8       30.10F
AUSTIN         CLOUDY    46  30  53 SE18      30.02F
PRESTON        CLOUDY    46  30  52 SE9G22    30.07F
$$
ABBREVIATIONS USED IN REMARKS
   TC - TEMPERATURES IN CELSIUS
  WCI - WIND CHILL INDEX
   HX - HEAT INDEX
  VSB - VISIBILITY
$$



USA.gov is the U.S. government's official web portal to all federal, state and local government web resources and services.